Weather in Smishlyaevka

Russia / Samara Oblast     53°15′10″N   50°23′32″E
temp.,
°C
wind,
m/s
gust,
m/s
humid.,
%
clouds,
%
prec.,
mm/h
press.,
hPa
HPBL,
m
3 march, wed
wed301:00−1wsw349798 0.2 1002101
04:00−4wnw239496 0.3 100322
07:00−6w229393 0.0 100222
10:00−4wnw239497 0.0 1004112
13:00−2nw578857 0.0 1004680
16:00−3nw688479 0.1 1005889
19:00−6wnw4108999 0.1 1006313
22:00−9w349595 0.1 100856
4 march, thu
thu401:00−11w459388 0.0 100871
04:00−13wsw449755 0.0 100885
07:00−12wsw5119667 0.0 1007243
10:00−7wsw7129384 0.1 1006484
13:00−3sw81391100 0.1 1004889
16:00−1sw91595100 0.7 10031027
19:000wsw91597100 0.4 1002874
22:000wsw91497100 1.6 1002883
5 march, fri
fri501:000wsw71397100 0.8 1002714
04:00−1sw71389100 1.3 1002625
07:00−1sw61297100 0.9 1001640
10:000sw612100100 3.3 1000737
13:00+1sw715100100 0.9 999706
16:00+1wsw713100100 1.2 1001592
19:00−4nnw5993100 0.3 1005410
22:00−10nnw349390 0.3 101075
6 march, sat
sat601:00−12nnw239386 0.0 101236
04:00−12n229194 0.0 101321
07:00−12ne2393100 0.0 101278
10:00−10ne3591100 0.0 1012264
13:00−8nne3588100 0.0 1011380
16:00−9n4589100 0.0 1011356
19:00−14nnw2391100 0.0 101120
22:00−16nnw228850 0.0 101220
7 march, sun
sun701:00−16w128830 0.0 101220
04:00−14wsw229660 0.1 101334
07:00−15nw349585 0.1 101469
10:00−14w229143 0.1 1015136
13:00−11sw358914 0.0 1016304
16:00−10ssw48857 0.0 1014385
19:00−13ssw4119093 0.0 1012325
22:00−10ssw5159397 0.0 1010560